Weather

Current Metar report

KALM 071435Z AUTO 17006KT 10SM CLR 14/03 A3012 RMK AO2


Metar history is on Flightaware.

KALM AWOS Info
Phone Number: 575-439-4112
Freq: 127.825 MHz

KALM Weather Links

Soaring Forecasts Links